sat.trackr.live / text

‹ back to catalog

STARLINK-5281

NORAD 54190 · 2022-141AK

PAYLOAD ACTIVE UNKNOWN

§ Identity

Operator
Country
US
Launch date
2022-10-28
Launch site
AFWTR
Launch vehicle
Mass (kg)
RCS (m²)

Purposes: comms

External: N2YO · Heavens-Above · Gunter

§ Orbital elements

Epoch: 2026-05-25T01:08:38.146272Z

Period
95.44 min
Inclination
53.2136°
Eccentricity
0.0001304
Mean motion
15.08812102 rev/d
Perigee alt
538.9 km
Apogee alt
540.7 km
Semi-major
6,918.0 km
B*
-1.9809e-4
RAAN
11.4553°
Arg perigee
97.5540°
Mean anomaly
262.5600°
Rev number
19,752

§ Raw data

STARLINK-52811 54190U 22141AK  26145.04766373 -.00003437  00000+0 -19809-3 0  99912 54190  53.2136  11.4553 0001304  97.5540 262.5600 15.08812102197521

JSON: /api/v1/satellites/54190 · /tle

For live sub-satellite position, see the globe view (requires WebGL).

§ Visibility from observer

Set your observer location to see the next 7 days of passes ≥ 10°. The values pass through the URL so the page stays shareable.

No JS? Fill the form by hand. The geolocation button needs JavaScript.